Location: ???????
(52.3000°N, 54.4667°E)
Time: 10:46:19
(UTC+00:00)

ATLAS 5 CENTAUR R/B - Pass Details

Date: 24 January 2020
Orbit: 550 x 1108 km, 63.4° (Epoch: 09 February)

Event Time Altitude Azimuth Distance (km) Brightness Sun altitude
Rises 15:28:06 0° 288° (WNW) 2,950 6.2 -23.3°
Reaches altitude 10° 15:30:39 10° 302° (WNW) 2,120 5.0 -23.7°
Maximum altitude 15:34:36 24° 357° (N) 1,496 3.5 -24.3°
Enters shadow 15:35:27 23° 12° (NNE) 1,558 3.4 -24.4°
